Regional Weather Roundup
Issued by NWS

Home | Current Version | Previous Version | Text Only | Print | Product List | Glossary Off
Versions: 1 2 3 4 5 6 7 8 9 10 11 12 13 14 15 16 17 18 19 20 21 22 23 24 25 26 27 28 29 30 31 32 33 34 35 36 37 38 39 40 41 42 43 44 45 46 47 48 49 50

850
ASUS43 KOAX 031710
RWRNE

WEATHER ROUNDUP FOR NEBRASKA
NATIONAL WEATHER SERVICE OMAHA NE
1200 PM CDT TUE MAY 03 2016

NOTES: SATELLITE DATA IS BEING USED TO AUGMENT CLOUD COVER ABOVE
       12000 FEET.
       "FAIR" INDICATES FEW OR NO CLOUDS BELOW 12,000 FEET WITH NO
       SIGNIFICANT WEATHER AND/OR OBSTRUCTIONS TO VISIBILITY.

  * THESE STATIONS DO NOT REPORT WEATHER SUCH AS RAIN...SNOW OR FOG.

NEZ001>004-019>022-054>056-031800-
NEBRASKA PANHANDLE

CITY           SKY/WX    TMP DP  RH WIND       PRES   REMARKS
SCOTTSBLUFF    SUNNY     65  38  36 NW15G21   30.16R
ALLIANCE       SUNNY     60  38  43 N13       30.13S
CHADRON        SUNNY     66  33  29 N14       30.14R
KIMBALL        SUNNY     58  39  49 N17       30.19S
SIDNEY         SUNNY     59  36  42 N14G20    30.17S
$$

NEZ057>060-069>072-079>082-031800-
SOUTHWEST NEBRASKA

CITY           SKY/WX    TMP DP  RH WIND       PRES   REMARKS
NORTH PLATTE   SUNNY     58  47  66 W6        30.12R
IMPERIAL       SUNNY     56  44  64 N12       30.14R
LEXINGTON      SUNNY     61  44  54 NE6       30.10R
MCCOOK         MOSUNNY   57  44  62 NW8       30.11R
OGALLALA       SUNNY     58  38  48 N10       30.13S
$$

NEZ005>010-023>029-035>040-094-031800-
NORTH CENTRAL NEBRASKA

CITY           SKY/WX    TMP DP  RH WIND       PRES   REMARKS
VALENTINE      SUNNY     62  40  44 NW9       30.09S
AINSWORTH      SUNNY     60  41  50 W9        30.09S
BROKEN BOW     SUNNY     60  41  49 VRB3      30.09R
O`NEILL        SUNNY     62  41  46 W9        30.07S
ORD            SUNNY     63  43  48 VRB5      30.07S
THEDFORD       SUNNY     59  42  52 NW6       30.11S
$$

NEZ041-046>049-061>064-073>077-083>087-031800-
SOUTH CENTRAL NEBRASKA

CITY           SKY/WX    TMP DP  RH WIND       PRES   REMARKS
GRAND ISLAND   SUNNY     61  37  41 CALM      30.08S
AURORA         SUNNY     62  38  41 E5        30.08S
HASTINGS       SUNNY     62  40  44 MISG      30.07S
HEBRON         SUNNY     64  38  39 CALM      30.07S
HOLDREGE       SUNNY     61  42  49 SE6       30.08R
KEARNEY *      SUNNY     61  39  44 CALM      30.09R
YORK           SUNNY     63  39  42 CALM      30.07F
$$

NEZ011>018-030>034-042>045-031800-
NORTHEAST NEBRASKA

CITY           SKY/WX    TMP DP  RH WIND       PRES   REMARKS
NORFOLK        SUNNY     64  41  42 NW9G18    30.04F
ALBION         MOSUNNY   64  39  40 W8        30.06S
BLAIR          SUNNY     64  43  47 W9        30.05S
COLUMBUS *     SUNNY     64  39  39 W8        30.07F
FREMONT        SUNNY     64  42  44 W10       30.06S
TEKAMAH        SUNNY     65  45  48 W13       30.03F
WAYNE          SUNNY     64  44  48 NW10G17   30.04F
$$

NEZ050>053-065>068-078-088>093-031800-
SOUTHEAST NEBRASKA

CITY           SKY/WX    TMP DP  RH WIND       PRES   REMARKS
LINCOLN        SUNNY     66  39  37 W6        30.08R
OMAHA EPPLEY   MOSUNNY   67  39  35 NW14      30.04F
BEATRICE       SUNNY     63  40  42 NW3       30.07S
FALLS CITY     PTSUNNY   65  43  44 SW8       30.06F
NEBRASKA CITY  MOSUNNY   63  40  43 W6        30.06F
PLATTSMOUTH    MOSUNNY   64  38  38 W7        30.06
$$

NEZ044-045-051>053-067-031800-
OMAHA AREA

CITY           SKY/WX    TMP DP  RH WIND       PRES   REMARKS
OMAHA EPPLEY   MOSUNNY   67  39  35 NW14      30.04F
BLAIR          SUNNY     64  43  47 W9        30.05S
FREMONT        SUNNY     64  42  44 W10       30.06S
MILLARD        SUNNY     64  40  40 W6        30.05S
OFFUTT AFB     SUNNY     64  40  40 VRB2      30.04F
PLATTSMOUTH    MOSUNNY   64  38  38 W7        30.06
WAHOO          FAIR      64  39  40 W7        30.06S
$$




USA.gov is the U.S. government's official web portal to all federal, state and local government web resources and services.